Peterborough, Ontario

9:40 PM EDT on September 29, 2016 (GMT -0400)
Peterborough

Weather History for CYPQ - May, 2013

Change the Weather History Date:

Wednesday, May 15, 2013

  Actual Average Record
Temperature  
Mean Temperature 58 °F -  
Max Temperature 74 °F 61 °F 82 °F (1998)
Min Temperature 41 °F 40 °F -7 °F (2013)
Degree Days  
Heating Degree Days 8    
Growing Degree Days 8 (Base 50)    
Moisture  
Dew Point 42 °F    
Average Humidity 63    
Maximum Humidity 87    
Minimum Humidity 37    
Precipitation  
Precipitation 0.03 in - - ()
Sea Level Pressure  
Sea Level Pressure 29.71 in    
Wind  
Wind Speed 8 mph ()    
Max Wind Speed 32 mph    
Max Gust Speed 43 mph    
Visibility 9.1 miles    
Events Rain , Thunderstorm    
Averages and records for this station are not official NWS values.
T = Trace of Precipitation, MM = Missing Value Source: Averaged Metar Reports

Daily Weather History Graph

Daily Weather History Graph

Search for Another Location

Airport or City:

Trip Planner

Search our weather history database for the weather conditions in past years. The results will help you decide how hot, cold, wet, or windy it might be!

Date:

Astronomy

May. 15, 2013 Rise Set
Actual Time 5:46 AM EDT 8:33 PM EDT
Civil Twilight 5:12 AM EDT 9:07 PM EDT
Nautical Twilight 4:30 AM EDT 9:50 PM EDT
Astronomical Twilight 3:41 AM EDT 10:39 PM EDT
Moon 10:22 AM EDT (5/15) 12:17 AM EDT (5/15)
Length of Visible Light 15h 54m
Length of Day
14h 47m
Waxing Crescent, 26% of the Moon is Illuminated
May 15
Waxing Crescent
May 18
First Quarter
May 25
Full
May 31
Last Quarter
Jun 8
New

Hourly Weather History & Observations

Time (EDT) Temp. Windchill Dew Point Humidity Pressure Visibility Wind Dir Wind Speed Gust Speed Precip Events Conditions
12:00 AM 44.6 °F 43.1 °F 32.0 °F 61% 29.96 in 9.0 mi SE 3.5 mph - N/A   Overcast
1:00 AM 42.8 °F 41.1 °F 33.8 °F 70% 29.93 in 9.0 mi ESE 3.5 mph - N/A   Overcast
2:00 AM 47 °F - 29 °F 37% 29.92 in 10 mi SE 6.9 mph - -   Overcast
2:00 AM 46.4 °F 42.9 °F 28.4 °F 50% 29.92 in 9.0 mi SE 6.9 mph - N/A   Overcast
3:00 AM 48.2 °F - 28.4 °F 46% 29.90 in 9.0 mi SE 6.9 mph - N/A   Overcast
4:00 AM 48.2 °F - 30.2 °F 50% 29.86 in 9.0 mi ESE 5.8 mph - N/A   Overcast
5:00 AM 46.4 °F 44.3 °F 32.0 °F 57% 29.84 in 9.0 mi East 4.6 mph - N/A   Overcast
5:05 AM 46.4 °F 42.9 °F 32.0 °F 57% 29.83 in 9.0 mi ESE 6.9 mph - N/A Rain Light Rain
6:02 AM 42.8 °F 40.1 °F 39.2 °F 87% 29.80 in 9.0 mi East 4.6 mph - N/A   Overcast
7:00 AM 44.6 °F 40.7 °F 39.2 °F 81% 29.77 in 9.0 mi East 6.9 mph - N/A   Mostly Cloudy
7:41 AM 44.6 °F 41.4 °F 39.2 °F 81% 29.77 in 9.0 mi East 5.8 mph - N/A Rain Light Rain
7:56 AM 44.6 °F 40.7 °F 41.0 °F 87% 29.74 in 9.0 mi East 6.9 mph - N/A Rain , Thunderstorm Light Rain
8:00 AM 45 °F - 40 °F 78% 29.75 in 10 mi ESE 5.8 mph - -   Unknown
8:00 AM 44.6 °F 43.1 °F 41.0 °F 87% 29.75 in 9.0 mi ESE 3.5 mph - N/A Rain , Thunderstorm Light Rain
8:11 AM 44.6 °F 40.2 °F 41.0 °F 87% 29.70 in 9.0 mi East 8.1 mph - N/A Rain Light Rain
8:34 AM 46.4 °F 41.9 °F 41.0 °F 81% 29.71 in 9.0 mi SE 9.2 mph - N/A   Overcast
9:00 AM 46.4 °F 42.9 °F 41.0 °F 81% 29.70 in 9.0 mi SE 6.9 mph - N/A   Overcast
10:00 AM 48.2 °F - 42.8 °F 82% 29.65 in 9.0 mi ESE 8.1 mph - N/A   Overcast
11:00 AM 53.6 °F - 44.6 °F 72% 29.61 in 9.0 mi SE 10.4 mph - N/A   Mostly Cloudy
12:00 PM 53.6 °F - 44.6 °F 72% 29.58 in 9.0 mi SSE 12.7 mph - N/A   Overcast
1:00 PM 59.0 °F - 50.0 °F 72% 29.55 in 9.0 mi SSE 8.1 mph - N/A   Overcast
2:00 PM 65 °F - 54 °F 59% 29.53 in 10 mi South 8.1 mph - -  
2:00 PM 66.2 °F - 53.6 °F 64% 29.53 in 9.0 mi SSW 5.8 mph - N/A   Mostly Cloudy
2:53 PM 71.6 °F - 55.4 °F 57% 29.52 in 9.0 mi West 18.4 mph 25.3 mph N/A   Mostly Cloudy
3:00 PM 71.6 °F - 55.4 °F 57% 29.52 in 9.0 mi WNW 15.0 mph 25.3 mph N/A   Mostly Cloudy
3:13 PM 73.4 °F - 51.8 °F 47% 29.52 in 9.0 mi West 27.6 mph 34.5 mph N/A   Mostly Cloudy
4:00 PM 69.8 °F - 50.0 °F 49% 29.57 in 9.0 mi WNW 20.7 mph 33.4 mph N/A   Clear
4:37 PM 68.0 °F - 48.2 °F 49% 29.58 in 9.0 mi West 32.2 mph 42.6 mph N/A   Clear
6:00 PM 64.4 °F - 44.6 °F 49% 29.62 in 9.0 mi WNW 20.7 mph 39.1 mph N/A   Clear
7:00 PM 62.6 °F - 42.8 °F 48% 29.65 in 9.0 mi WNW 21.9 mph 31.1 mph N/A   Clear
8:00 PM 62 °F - 43 °F 38% 29.67 in 10 mi WNW 11.5 mph - -  
8:00 PM 62.6 °F - 42.8 °F 48% 29.67 in 9.0 mi WNW 11.5 mph 17.3 mph N/A   Clear
9:00 PM 59.0 °F - 42.8 °F 55% 29.69 in 9.0 mi WNW 9.2 mph 17.3 mph N/A   Clear
10:00 PM 59.0 °F - 44.6 °F 59% 29.70 in 9.0 mi West 11.5 mph - N/A   Clear
11:00 PM 57.2 °F - 42.8 °F 59% 29.70 in 9.0 mi West 12.7 mph 19.6 mph N/A   Clear